GFSNE_925_thetae_000.txt.gz
Theta_e
302 300 301 301 302 303 304 305 308 309 309 312 325 326 326 326 326 326 328 326 325 326 326 325 325 327 326 325 323 320 320 315 311 303 307 309 312 313
299 300 300 300 301 302 304 307 310 309 310 315 322 326 324 326 326 327 327 326 325 325 326 324 321 325 324 323 320 317 316 312 302 302 304 304 310 312
300 300 300 301 301 303 306 310 311 310 310 315 315 318 324 324 325 325 325 324 323 324 325 324 317 319 321 318 317 314 310 303 302 302 303 303 306 311
301 301 301 303 305 305 309 310 311 310 314 315 316 316 323 322 323 322 322 323 322 322 324 323 320 314 318 314 314 313 308 301 302 302 302 302 304 308
302 301 304 304 307 308 309 311 312 312 315 316 316 318 322 320 320 319 320 320 320 320 320 322 318 313 314 311 312 312 308 301 302 302 302 302 304 305
302 302 303 304 307 310 310 311 313 316 315 315 314 321 321 319 319 318 319 321 320 322 321 319 316 313 312 310 310 311 308 301 302 302 302 302 304 305
302 302 303 306 308 312 315 314 315 316 315 315 316 322 320 320 319 320 319 322 322 321 320 319 315 314 311 309 309 310 307 301 302 302 302 302 304 305
302 301 303 305 307 310 313 317 316 316 315 316 316 321 321 320 320 321 321 323 322 321 319 318 315 313 311 309 308 310 307 302 302 302 302 302 304 304
302 302 304 305 307 308 313 317 319 318 316 314 317 323 321 322 321 323 322 323 322 321 318 317 315 313 311 309 308 310 307 302 302 302 302 302 304 304
302 303 305 305 306 309 312 317 318 319 319 316 316 317 322 323 321 323 323 323 323 320 318 316 314 312 311 310 308 310 307 303 302 302 302 302 304 305
302 303 304 305 306 309 312 314 317 318 319 318 315 316 323 323 323 324 324 324 323 320 318 316 314 313 312 311 310 310 305 304 302 302 302 302 304 307
302 302 303 305 307 309 311 314 318 320 321 320 319 318 323 324 324 324 324 323 322 321 319 316 315 314 313 312 311 310 305 304 302 303 303 302 305 307
301 302 303 304 307 309 312 316 318 321 320 319 318 322 324 324 325 324 324 323 322 321 319 317 315 315 314 311 310 308 306 305 302 303 303 302 304 307
301 301 302 304 307 311 313 316 319 321 320 320 322 326 325 325 325 325 324 323 321 321 319 318 316 315 312 310 310 308 307 305 303 303 303 303 306 306
300 301 303 306 308 311 313 314 318 323 323 322 323 326 326 326 325 325 323 322 322 322 319 318 316 315 313 312 310 309 308 306 304 304 304 303 305 306
300 301 304 306 307 309 311 313 319 323 323 322 325 325 326 326 326 324 320 320 320 320 318 317 316 315 314 313 312 309 309 308 305 306 307 306 306 307
301 303 304 304 305 307 309 310 314 323 322 323 325 325 326 326 325 322 319 318 318 316 315 316 315 315 315 314 312 311 309 309 307 307 306 306 305 307
302 303 303 303 304 305 307 309 312 322 326 324 325 325 326 325 323 319 318 317 316 316 314 314 315 315 314 313 314 310 310 309 307 307 306 305 305 306
303 302 302 302 302 303 305 307 310 314 325 326 326 325 325 324 321 319 318 316 316 316 315 314 315 314 313 311 310 312 310 308 307 307 305 306 306 306
302 302 301 301 301 302 304 306 309 314 326 326 325 325 324 322 321 319 318 316 316 316 314 315 315 316 314 311 309 310 311 309 307 305 306 306 306 306
301 302 301 300 301 301 303 305 308 312 320 324 324 324 323 321 320 320 318 317 317 316 315 316 316 316 314 313 309 307 308 309 309 306 307 306 305 305
300 302 300 300 300 301 302 304 308 312 322 324 323 322 322 321 320 319 317 316 317 316 317 316 317 317 314 312 308 305 306 306 306 306 307 307 306 304
299 301 300 299 300 300 302 303 307 309 313 323 321 321 321 320 320 319 317 317 317 316 315 315 314 315 313 309 306 304 304 305 306 306 306 306 306 306

GFSNE_925_thetae_003.txt.gz
Theta_e
300 302 301 300 300 301 302 301 303 305 304 305 307 308 309 310 325 330 330 331 329 328 328 330 329 329 329 328 327 326 323 320 316 305 304 305 308 311
299 300 301 300 300 301 302 301 302 303 305 306 308 308 310 313 328 330 330 330 329 327 327 329 328 329 328 327 326 324 321 317 308 303 305 304 305 309
299 300 301 301 302 301 302 303 303 304 306 307 309 309 309 312 325 329 328 329 328 327 325 328 327 328 327 326 325 321 319 311 303 303 303 303 302 305
299 300 300 301 302 302 302 303 305 306 308 310 311 311 314 314 321 327 327 328 328 327 325 327 326 327 326 324 322 317 315 304 302 302 303 302 302 304
300 300 301 301 302 302 304 306 308 310 310 310 311 309 313 316 323 326 327 327 327 327 326 326 324 325 325 322 319 316 311 303 302 302 302 302 302 305
301 301 301 302 301 303 306 308 310 310 311 312 312 311 315 317 321 324 324 325 325 326 326 325 321 320 322 318 315 315 310 302 302 302 302 302 303 305
301 301 302 302 303 305 309 310 312 312 312 312 314 315 315 315 321 323 321 322 323 325 324 322 320 319 319 315 313 314 311 303 302 302 302 302 304 305
301 300 301 302 303 306 307 310 313 313 314 315 315 315 316 318 320 320 320 320 321 323 322 321 321 318 317 313 311 312 311 303 302 302 302 302 304 304
301 301 301 302 303 303 306 309 311 316 315 315 315 315 315 318 320 319 320 320 320 321 320 319 318 317 316 313 310 311 310 303 302 302 302 302 304 305
300 301 301 303 301 304 307 309 310 313 317 316 315 315 314 318 319 319 320 319 319 319 318 316 315 314 315 312 310 310 310 303 302 302 302 302 304 305
300 302 302 302 301 306 308 309 310 312 315 317 316 316 315 316 320 319 321 320 319 317 316 315 313 313 314 312 310 309 310 303 302 302 302 302 304 306
301 301 300 301 304 306 308 310 312 314 318 319 318 318 316 316 320 320 321 321 318 316 315 314 312 312 311 311 310 310 308 304 302 302 302 302 305 307
300 299 300 301 304 306 309 311 315 317 318 320 320 318 316 317 321 322 322 320 318 317 315 314 313 313 312 310 310 310 308 304 302 302 302 302 304 307
299 299 299 302 304 307 308 310 313 316 321 321 320 320 319 320 322 323 322 321 319 318 316 314 314 314 310 310 310 308 307 305 303 303 303 303 305 307
299 299 301 303 304 305 306 308 311 316 321 320 319 320 321 323 323 323 323 322 320 320 316 315 314 314 314 312 309 308 306 305 303 303 303 303 306 306
299 300 302 303 302 304 304 306 308 313 321 320 320 322 324 323 324 324 323 322 320 318 317 316 315 315 313 311 310 307 307 305 304 303 304 303 305 306
299 301 302 301 301 302 303 304 306 310 323 322 322 323 325 324 325 324 323 321 320 317 315 315 315 314 313 312 309 308 306 307 305 304 304 304 306 306
300 301 302 301 301 301 302 303 304 308 314 323 323 324 326 325 325 323 321 321 319 316 315 313 313 312 311 311 311 308 307 308 305 305 305 305 305 306
299 300 301 302 300 301 301 302 303 305 310 321 324 326 326 326 324 322 321 321 318 316 314 313 313 313 312 309 309 309 308 308 305 305 306 305 305 306
298 299 300 301 300 300 301 302 303 305 311 322 324 326 326 326 322 320 320 318 316 315 313 314 314 314 313 310 307 309 310 309 306 305 305 305 305 305
297 299 299 301 299 299 300 301 303 306 311 317 325 325 326 323 320 319 319 317 316 314 313 314 314 314 313 312 308 306 306 311 310 308 305 305 304 303
297 298 299 300 299 299 300 301 303 306 311 318 326 325 324 322 319 319 317 316 315 314 314 314 315 314 312 312 307 304 304 305 306 307 305 306 305 303
297 298 299 300 299 299 300 301 302 305 307 310 325 325 323 322 319 318 317 316 315 315 313 311 312 313 312 308 306 303 303 304 304 305 305 306 306 305

GFSNE_925_thetae_006.txt.gz
Theta_e
299 299 299 299 300 300 300 300 301 303 302 301 303 303 305 306 306 310 311 318 329 330 331 329 329 330 330 330 331 328 327 325 322 316 315 314 311 311
299 299 299 299 299 300 300 301 302 302 302 301 301 302 303 307 306 309 310 322 329 330 331 329 329 329 329 330 330 327 326 323 319 314 314 308 306 309
299 299 299 299 299 300 301 301 301 301 302 303 303 304 306 306 307 309 313 324 329 329 330 329 328 329 329 330 329 326 325 322 316 313 312 309 303 305
299 299 299 299 300 300 301 302 301 301 303 305 304 306 308 309 309 311 314 327 329 330 330 329 327 328 328 328 327 326 323 320 309 309 306 304 302 304
300 300 300 300 300 301 302 302 303 304 305 306 307 309 310 308 308 311 314 328 329 329 329 328 327 328 327 327 326 326 321 316 305 305 303 302 302 305
300 300 301 301 301 301 303 303 304 308 309 309 309 310 310 308 310 314 318 328 329 329 329 327 327 327 326 327 326 324 319 310 304 303 303 302 303 305
301 301 300 300 302 302 303 304 304 307 311 311 312 312 311 310 311 314 323 327 328 328 327 327 327 327 326 326 325 321 316 307 303 303 302 302 304 305
300 300 300 300 301 303 303 304 306 310 312 312 312 311 311 312 314 314 322 326 326 326 325 325 325 324 326 325 322 317 314 306 302 302 302 302 304 304
299 299 300 300 302 302 301 303 307 309 311 314 313 313 314 314 315 316 321 325 324 324 323 322 322 321 323 323 320 315 312 305 302 302 303 302 304 305
299 299 300 301 301 301 302 305 306 308 310 312 313 314 314 314 315 321 323 324 323 323 323 320 319 318 319 319 317 313 312 305 302 303 303 302 304 306
299 299 301 300 300 301 304 306 307 309 312 314 315 314 315 315 315 319 322 320 321 321 321 318 317 314 316 316 315 312 311 305 302 302 303 302 304 305
299 299 299 299 300 303 305 306 308 309 313 316 317 315 315 316 316 318 321 320 320 319 317 316 314 316 311 313 313 311 310 305 302 302 302 302 305 306
298 298 298 299 301 304 305 305 307 309 310 314 318 317 317 317 316 319 320 320 319 317 315 315 314 314 312 310 311 311 310 305 302 302 302 302 304 306
298 298 299 300 302 304 303 305 306 307 310 315 318 319 318 317 316 319 320 319 318 317 315 314 313 312 309 310 310 309 309 305 303 302 302 302 304 307
299 299 299 301 303 302 302 304 304 304 306 309 319 319 318 317 317 320 321 319 317 317 315 313 313 312 311 310 309 308 306 305 303 302 302 302 304 306
298 299 300 301 302 302 301 301 302 303 305 309 318 319 319 318 320 322 321 319 317 315 314 313 312 312 311 310 309 307 307 305 303 302 303 303 305 306
299 299 300 300 301 301 300 301 302 302 304 314 319 320 320 320 322 322 322 319 317 315 313 313 312 312 312 311 309 307 305 305 304 303 303 304 305 306
298 298 298 299 300 301 300 300 301 302 303 306 319 320 321 322 322 322 322 319 317 314 313 311 311 311 310 309 311 307 305 305 303 303 303 303 305 306
296 296 297 299 300 301 299 300 300 301 303 305 314 321 321 323 323 323 321 320 317 315 312 311 311 312 312 310 307 308 306 305 303 302 303 303 305 306
296 296 297 298 300 300 299 299 300 301 303 306 310 322 322 324 324 322 322 320 317 315 312 312 312 313 313 309 306 307 307 307 304 303 303 304 305 306
295 295 296 298 299 300 299 299 300 301 303 306 312 323 324 325 323 322 322 319 317 314 313 313 313 313 313 311 307 306 305 308 308 306 304 305 303 303
295 295 296 298 299 300 299 299 300 301 303 305 307 323 325 324 323 322 321 317 316 314 314 314 314 313 311 311 307 304 304 305 305 306 307 306 305 302
295 296 297 298 299 299 298 299 299 301 303 304 305 314 325 323 322 321 319 316 316 315 313 309 311 311 311 308 305 304 303 304 304 304 305 306 306 307

GFSNE_925_thetae_009.txt.gz
Theta_e
298 298 298 298 298 298 299 299 300 301 301 301 301 301 301 301 302 304 306 308 309 312 322 332 331 330 330 331 330 330 329 327 326 324 318 317 316 315
298 298 298 298 298 298 299 299 299 301 302 301 301 301 301 301 302 304 306 306 310 310 318 331 331 329 329 330 329 330 329 327 324 321 316 316 314 313
298 298 298 299 298 299 299 299 300 301 302 301 301 300 301 302 302 304 307 308 310 311 321 330 331 329 329 330 329 331 329 326 323 318 316 315 313 312
298 298 299 299 299 300 299 299 300 301 302 302 301 301 302 304 304 305 307 309 311 314 324 328 331 328 330 329 330 331 328 326 323 316 316 314 312 309
299 299 300 300 300 300 300 299 301 302 303 303 304 305 305 306 306 308 310 311 310 319 327 331 330 328 329 329 330 330 327 325 322 313 313 311 307 306
300 300 300 300 300 300 301 301 303 304 303 304 305 308 306 307 309 309 310 310 314 325 328 330 330 328 328 329 329 328 326 324 320 311 308 304 305 305
300 299 299 300 302 302 302 303 303 303 304 305 309 309 308 310 310 310 311 312 317 328 330 329 329 328 328 329 328 327 325 323 315 307 305 303 303 305
297 298 298 299 299 301 302 302 302 304 306 308 310 311 311 310 310 310 310 312 327 329 329 328 328 327 328 327 327 326 325 320 309 304 304 302 303 304
297 298 298 298 300 300 300 301 302 305 307 309 311 312 310 310 311 313 313 314 326 328 328 327 326 324 325 327 326 326 322 317 305 303 303 302 304 304
297 298 298 299 300 300 300 302 304 305 306 309 311 312 312 311 313 314 315 315 326 327 326 325 323 320 323 326 325 324 319 314 304 303 302 303 304 306
298 298 298 299 298 300 301 304 305 304 305 308 309 313 313 313 314 315 317 322 325 324 324 321 317 316 318 321 321 321 316 312 304 302 302 303 304 306
297 297 297 298 299 300 302 305 303 304 307 307 309 315 315 314 314 315 317 324 324 323 321 317 316 316 311 314 317 315 313 311 303 302 302 303 304 305
298 298 298 298 299 301 303 303 304 306 305 305 310 316 315 315 315 316 318 323 322 319 319 317 318 315 313 311 312 312 312 309 303 302 302 303 304 305
299 299 299 299 300 302 302 303 304 304 303 305 307 316 316 316 316 316 320 322 321 319 317 319 318 316 311 313 311 309 310 308 304 302 302 302 303 305
300 300 299 299 300 300 302 303 302 301 303 304 305 307 317 317 317 317 319 320 320 320 318 319 318 315 315 314 310 309 307 306 304 302 302 302 303 305
299 298 298 298 299 300 301 301 300 301 302 304 305 306 316 318 317 318 319 318 316 315 315 316 316 316 313 312 310 307 308 306 304 302 302 302 303 306
299 297 296 297 297 299 301 300 299 300 301 302 304 309 318 318 318 320 319 317 316 314 312 312 314 313 313 312 308 308 307 307 306 303 302 302 304 306
299 296 295 296 297 299 300 300 299 300 301 302 304 309 319 318 319 321 319 317 315 314 312 310 310 309 309 308 310 307 306 306 306 304 302 303 304 306
296 295 295 295 296 298 300 300 299 299 300 302 304 308 319 319 319 321 319 317 315 313 311 310 309 310 310 309 307 308 307 306 306 303 302 303 304 305
295 295 295 295 296 298 300 299 298 299 300 302 304 309 319 320 321 322 319 317 315 313 310 310 310 310 311 310 305 306 307 306 305 302 302 303 304 305
295 295 295 295 296 298 300 299 298 299 300 301 304 306 314 320 322 321 319 317 315 312 311 311 311 311 311 309 307 305 305 306 308 306 303 303 303 304
295 295 295 295 297 298 299 298 298 299 299 300 302 304 307 321 322 321 319 317 315 313 312 312 311 311 310 311 306 303 303 304 304 305 305 306 305 302
295 295 295 296 297 298 299 298 298 299 299 300 301 303 304 320 323 322 319 317 314 314 313 309 310 310 310 308 305 303 303 303 303 303 304 306 306 308

GFSNE_925_thetae_012.txt.gz
Theta_e
297 297 297 297 298 298 297 297 298 299 299 299 299 300 300 301 301 301 301 302 304 307 308 312 310 320 333 331 332 330 328 326 327 325 324 319 318 316
297 297 297 297 298 298 298 298 298 298 299 299 300 300 301 301 301 302 302 303 304 309 310 311 310 318 332 330 332 330 328 327 326 325 322 318 317 316
297 297 298 298 298 299 299 299 298 298 299 299 300 301 302 302 301 301 302 302 303 305 309 311 312 321 331 329 331 330 329 327 326 324 319 318 316 315
297 298 299 299 299 299 299 299 298 299 299 300 301 302 303 303 302 303 303 303 305 307 309 310 314 327 331 328 331 330 329 327 326 323 318 317 315 314
298 299 299 300 299 299 299 299 299 299 299 300 302 302 302 303 303 304 304 304 305 307 311 312 318 329 331 327 330 330 329 327 325 322 315 315 314 311
299 300 300 298 298 299 300 301 301 301 302 303 302 303 304 305 307 306 306 306 307 309 312 313 324 331 330 327 330 330 329 327 325 321 312 310 310 307
300 299 298 298 299 299 300 300 301 301 301 303 303 305 305 307 307 307 308 309 309 311 311 319 329 330 328 329 329 330 327 326 324 317 309 305 306 305
299 298 297 297 298 299 300 300 301 301 302 304 306 306 308 310 309 309 309 310 312 312 314 328 329 328 328 329 330 329 326 325 322 310 305 303 304 305
298 297 297 298 298 298 298 300 300 301 304 306 307 306 310 311 310 310 310 311 313 315 323 328 328 327 326 329 329 327 326 324 320 305 304 303 304 304
297 297 297 297 298 298 299 300 300 302 304 304 306 308 309 311 310 310 311 312 314 314 327 327 327 323 324 327 327 326 325 322 314 304 304 303 304 304
297 297 297 297 297 299 299 300 302 303 303 306 306 306 310 314 312 313 313 315 317 324 327 323 322 320 320 321 325 326 324 319 307 304 303 302 304 306
298 298 297 298 298 299 300 301 303 302 305 304 303 305 310 314 313 314 315 318 319 325 321 319 319 317 313 315 320 321 318 313 304 303 303 303 304 306
298 298 298 299 300 300 301 301 302 305 302 302 303 305 310 314 315 314 315 317 322 320 320 320 318 318 313 312 311 315 314 308 304 303 303 303 304 305
298 299 300 299 299 300 300 301 304 302 301 302 303 305 308 315 315 315 316 319 322 319 320 321 319 318 314 313 308 309 310 307 303 303 303 303 303 304
300 300 299 298 298 298 299 301 302 300 300 302 303 304 305 308 315 316 317 320 321 320 321 321 320 318 318 317 310 308 307 305 303 302 303 303 303 304
300 298 298 296 296 297 298 300 301 300 300 301 302 302 304 309 316 316 318 317 317 317 319 319 321 319 314 314 311 306 308 306 304 302 302 303 302 303
300 300 297 295 295 296 298 299 300 299 300 300 301 303 305 308 317 317 318 318 317 314 315 315 315 316 316 313 309 309 306 306 305 303 302 302 302 303
299 298 295 294 295 295 297 298 299 299 299 300 301 303 305 310 318 319 317 317 315 312 311 311 312 311 311 311 316 308 307 306 305 304 303 302 302 303
297 295 294 294 295 295 296 298 299 298 298 300 301 302 305 310 318 319 317 316 314 311 311 311 312 312 313 309 308 310 308 307 305 303 303 303 303 304
295 295 294 294 294 295 296 298 299 298 298 300 300 301 304 307 318 320 317 316 313 311 311 311 312 313 314 311 305 308 308 309 306 303 302 302 303 304
295 295 295 294 295 295 297 298 299 298 298 300 300 301 303 305 318 319 317 315 313 312 311 310 311 311 311 309 306 305 305 307 307 306 303 302 303 304
295 295 294 294 295 296 297 298 299 298 298 299 300 300 302 304 311 319 317 315 314 312 312 311 310 310 309 309 305 303 303 304 304 305 306 305 305 302
295 295 295 295 296 297 298 298 299 298 298 299 299 300 301 302 305 320 317 315 314 313 311 309 309 309 309 308 305 302 302 302 302 302 303 305 305 308